Regional Weather Roundup
Issued by NWS

Home | Current Version | Previous Version | Text Only | Print | Product List | Glossary On
Versions: 1 2 3 4 5 6 7 8 9 10 11 12 13 14 15 16 17 18 19 20 21 22 23 24 25 26 27 28 29 30 31 32 33 34 35 36 37 38 39 40 41 42 43 44 45 46 47 48 49 50
000
ASUS43 KTOP 241608
RWRKS

WEATHER ROUNDUP FOR KANSAS
NATIONAL WEATHER SERVICE GOODLAND KS
1100 AM CDT FRI APR 24 2015

NOTE:  "FAIR" INDICATES FEW OR NO CLOUDS BELOW 12,000 FEET WITH NO
SIGNIFICANT WEATHER AND/OR OBSTRUCTIONS TO VISIBILITY.

KSZ001>006-013>018-027>032-041>047-241700-
NORTHWEST KANSAS

CITY           SKY/WX    TMP DP  RH WIND       PRES   REMARKS
GOODLAND       MOSUNNY   62  50  64 CALM      29.65F
HAYS           CLOUDY    61  54  77 SE13      29.66F
HILL CITY      CLOUDY    60  57  89 S10       29.67F
RUSSELL        CLOUDY    61  58  90 S16       29.67S
$$

KSZ061>065-074>080-084>089-241700-
SOUTHWEST KANSAS

CITY           SKY/WX    TMP DP  RH WIND       PRES   REMARKS
DODGE CITY     PTSUNNY   69  55  60 S24G32    29.63F
ELKHART          N/A     64  49  58 N6          N/A
GARDEN CITY    PTSUNNY   63  49  60 S13       29.62F
GREAT BEND     CLOUDY    61  55  82 S8        29.68R
LIBERAL        MOSUNNY   64  48  55 SW9G16    29.68F
$$

KSZ066>073-081>083-090>101-241700-
SOUTHEAST KANSAS

CITY           SKY/WX    TMP DP  RH WIND       PRES   REMARKS
CHANUTE        CLOUDY    58  51  78 SE15      29.81F
COFFEYVILLE    CLOUDY    60  52  74 S15       29.80F
HUTCHINSON     CLOUDY    61  58  90 SE17      29.69F FOG
MEDICINE LODGE   N/A     63  63 100 SE9       29.68F
NEWTON         CLOUDY    57  54  88 S15G21    29.72F
PARSONS        CLOUDY    60  53  77 S13G18    29.82F
WICHITA INTL   CLOUDY    61  58  90 S20       29.71F FOG
WICHITA JABRA  CLOUDY    61  59  93 S17G23    29.71F
WICHITA MCCONL CLOUDY    61  58  90 SE17      29.72F
WINFIELD       CLOUDY    61  58  90 SE9       29.76F
$$

KSZ007>012-019>026-033>040-048>060-102>105-241700-
NORTHEAST KANSAS

CITY           SKY/WX    TMP DP  RH WIND       PRES   REMARKS
CONCORDIA      CLOUDY    60  54  80 S14       29.71S
EMPORIA        CLOUDY    55  51  86 SE14      29.75F
LAWRENCE       CLOUDY    58  47  66 S17G25    29.78S
MANHATTAN      CLOUDY    61  54  77 S12       29.74S
MARYSVILLE     CLOUDY    59  52  77 S8        29.74S
OLATHE IND     CLOUDY    57  48  72 SE21G28   29.80F
OLATHE EXE     CLOUDY    56  48  74 S23       29.79F
SALINA         CLOUDY    61  56  83 S10       29.71F
TOPEKA BILLARD CLOUDY    58  49  72 S14       29.78S
TOPEKA FORBES  CLOUDY    59  49  69 S13       29.76S
$$


USA.gov is the U.S. government's official web portal to all federal, state and local government web resources and services.